User: anonymous   Login
Location: Nebula Knoll Observatory
(43.6666°N, 71.0000°W)
Time: 23:19:20
(UTC-04:00)
Language:

Cosmos 1782 - Orbit

View from above orbital plane
View from above orbital plane
View from above satellite
View from above satellite

Ground track
Ground track

The orbit data is extracted from the following two-line orbital elements,

1 16986U 86074A   16176.27333006  .00000329  00000-0  20468-4 0  9998
2 16986  82.5070 109.3002 0012972 118.1741 242.0799 15.06127975616978
Epoch (UTC): 24 June 2016 06:33:35
Eccentricity: 0.0012972
inclination: 82.5070°
perigee height: 539 km
apogee height: 557 km
right ascension of ascending node: 109.3002°
argument of perigee: 118.1741°
revolutions per day: 15.06127975
mean anomaly at epoch: 242.0799°
orbit number at epoch: 61697

The dashed part of the orbit path shows where the satellite is in the earth's shadow,  

DLR